Погода в Ловече

Болгария     43°08′23″N   24°42′56″E
темп.,
°C
ветер,
м/с
пор.,
м/с
влажн.,
%
обл.,
%
осадки,
мм/ч
давл.,
гПа
погр.,
м
22 сентября, ср
ср2200:00+13зюз385790 0.0 1024414
03:00+13з595156 0.0 1023999
06:00+10зюз48656 0.0 1022232
09:00+12зсз61053100 0.0 1021917
12:00+14зсз81041100 0.0 10201571
15:00+14зсз81041100 0.0 10191862
18:00+13зсз6954100 0.1 10191627
21:00+12зсз7106398 0.2 10201003
23 сентября, чт
чт2300:00+11зсз6106621 0.0 1020948
03:00+10зсз51074100 0.1 1020785
06:00+9зсз5108442 0.1 1020642
09:00+10зсз697511 0.2 1021777
12:00+14зсз665051 0.0 10211452
15:00+18сз673468 0.0 10192291
18:00+17сз56315 0.0 10192125
21:00+13зюз374225 0.0 1020138
24 сентября, пт
пт2400:00+11юз36492 0.0 1021101
03:00+10юз355294 0.0 102075
06:00+9ююз3356100 0.0 101941
09:00+13ююз2345100 0.0 1018132
12:00+20з4725100 0.0 1017915
15:00+24зсз8101962 0.0 10141495
18:00+24зсз7112243 0.0 10141100
21:00+17з4837100 0.0 1016174
25 сентября, сб
сб2500:00+16зюз493923 0.0 1018165
03:00+15юз46430 0.0 1018100
06:00+15юз46420 0.0 101883
09:00+19з410340 0.0 1020531
12:00+24зсз68320 0.0 10211393
15:00+27зсз56280 0.0 10191817
18:00+26зсз35300 0.0 1019865
21:00+20зюз11420 0.0 102011
26 сентября, вс
вс2600:00+19ююз22470 0.0 102116
03:00+17ююз22500 0.0 102113
06:00+16юз11520 0.0 102111
09:00+19юз11440 0.0 1022103
12:00+25ссв21340 0.0 1021780
15:00+28св21270 0.0 10201554
18:00+27всв22290 0.0 1018358
21:00+22юв12400 0.0 101911